Seattle, WA

11:23 AM PDT on June 25, 2017 (GMT -0700)
Seattle-Tacoma International

Weather History for KSEA - October, 2007

Change the Weather History Date:

Friday, October 5, 2007

  Actual Average Record
Temperature  
Mean Temperature 50 °F 56 °F  
Max Temperature 54 °F 64 °F 82 °F (1980)
Min Temperature 45 °F 48 °F 38 °F (1974)
Degree Days  
Heating Degree Days 15 9  
Month to date heating degree days 66 43  
Since 1 July heating degree days 260 260  
Cooling Degree Days 0 0  
Month to date cooling degree days 0 0  
Year to date cooling degree days 192 189  
Moisture  
Dew Point 43 °F    
Average Humidity 78    
Maximum Humidity 93    
Minimum Humidity 63    
Precipitation  
Precipitation 0.00 in 0.08 in 1.26 in (1981)
Month to date precipitation 1.18 0.36  
Year to date precipitation 24.02 22.45  
Snow  
Snow 0.00 in - - ()
Month to date snowfall  
Since 1 July snowfall  
Snow Depth -    
Sea Level Pressure  
Sea Level Pressure 30.10 in    
Wind  
Wind Speed 6 mph (NNE)    
Max Wind Speed 13 mph    
Max Gust Speed 15 mph    
Visibility 10 miles    
Events      
T = Trace of Precipitation, MM = Missing Value Source: NWS Daily Summary

Daily Weather History Graph

Daily Weather History Graph

Search for Another Location

Airport or City:

Trip Planner

Search our weather history database for the weather conditions in past years. The results will help you decide how hot, cold, wet, or windy it might be!

Date:

Astronomy

Oct. 05, 2007 Rise Set
Actual Time 7:13 AM PDT 6:41 PM PDT
Civil Twilight 6:42 AM PDT 7:11 PM PDT
Nautical Twilight 6:07 AM PDT 7:47 PM PDT
Astronomical Twilight 5:31 AM PDT 8:23 PM PDT
Moon 1:05 AM PDT (10/5) 4:45 PM PDT (10/5)
Length of Visible Light 12h 28m
Length of Day
11h 27m
Waning Crescent, 26% of the Moon is Illuminated
Oct 5
Waning Crescent
Oct 10
New
Oct 19
First Quarter
Oct 25
Full
Nov 1
Last Quarter

Hourly Weather History & Observations

Time (PDT) Temp. Windchill Dew Point Humidity Pressure Visibility Wind Dir Wind Speed Gust Speed Precip Events Conditions
12:42 AM 46.4 °F 41.9 °F 42.8 °F 87% 29.97 in 10.0 mi NNE 9.2 mph - N/A   Overcast
12:53 AM 46.9 °F - 44.1 °F 90% 29.99 in 10.0 mi NNE 6.9 mph - N/A   Overcast
1:23 AM 46.4 °F 41.1 °F 42.8 °F 87% 29.98 in 10.0 mi NNE 11.5 mph - N/A   Overcast
1:53 AM 46.9 °F - 43.0 °F 86% 30.00 in 10.0 mi NNE 12.7 mph - N/A   Overcast
2:13 AM 46.4 °F 41.5 °F 42.8 °F 87% 29.98 in 10.0 mi NE 10.4 mph - N/A   Mostly Cloudy
2:53 AM 46.9 °F - 43.0 °F 86% 30.01 in 10.0 mi NNE 8.1 mph - N/A   Overcast
3:53 AM 46.9 °F - 43.0 °F 86% 30.02 in 10.0 mi NNE 8.1 mph - N/A   Overcast
4:09 AM 46.4 °F 41.9 °F 42.8 °F 87% 30.00 in 10.0 mi NNE 9.2 mph - N/A   Overcast
4:26 AM 46.4 °F 42.4 °F 42.8 °F 87% 30.01 in 10.0 mi NNE 8.1 mph - N/A   Overcast
4:53 AM 46.0 °F 41.9 °F 43.0 °F 89% 30.04 in 9.0 mi North 8.1 mph - N/A   Overcast
5:14 AM 46.4 °F 43.5 °F 42.8 °F 87% 30.02 in 8.0 mi NNE 5.8 mph - N/A   Mostly Cloudy
5:45 AM 44.6 °F 40.2 °F 42.8 °F 93% 30.04 in 7.0 mi NNE 8.1 mph - N/A   Mostly Cloudy
5:53 AM 45.0 °F 40.1 °F 42.1 °F 90% 30.06 in 6.0 mi NNE 9.2 mph - N/A   Mostly Cloudy
6:01 AM 44.6 °F 40.2 °F 42.8 °F 93% 30.04 in 6.0 mi NNE 8.1 mph - N/A   Mostly Cloudy
6:53 AM 45.0 °F - 43.0 °F 93% 30.08 in 7.0 mi Calm Calm - N/A   Mostly Cloudy
7:53 AM 46.9 °F - 43.0 °F 86% 30.10 in 10.0 mi NNE 9.2 mph - N/A   Overcast
8:53 AM 46.9 °F - 43.0 °F 86% 30.12 in 10.0 mi North 8.1 mph - N/A   Overcast
9:12 AM 48.2 °F - 42.8 °F 82% 30.10 in 10.0 mi North 6.9 mph - N/A   Overcast
9:31 AM 48.2 °F - 42.8 °F 82% 30.10 in 10.0 mi North 9.2 mph - N/A   Overcast
9:40 AM 48.2 °F - 42.8 °F 82% 30.10 in 10.0 mi North 5.8 mph - N/A   Overcast
9:53 AM 48.0 °F - 43.0 °F 83% 30.13 in 10.0 mi North 5.8 mph - N/A   Overcast
9:57 AM 48.2 °F - 42.8 °F 82% 30.11 in 10.0 mi North 6.9 mph - N/A   Overcast
10:14 AM 48.2 °F - 42.8 °F 82% 30.11 in 10.0 mi NNE 5.8 mph - N/A   Overcast
10:39 AM 48.2 °F - 42.8 °F 82% 30.12 in 10.0 mi NE 6.9 mph - N/A   Overcast
10:46 AM 48.2 °F - 42.8 °F 82% 30.12 in 10.0 mi NE 6.9 mph - N/A   Overcast
10:53 AM 48.0 °F - 43.0 °F 83% 30.14 in 10.0 mi ENE 5.8 mph - N/A   Overcast
11:53 AM 48.0 °F - 43.0 °F 83% 30.15 in 10.0 mi NW 4.6 mph - N/A   Mostly Cloudy
12:20 PM 48.2 °F - 42.8 °F 82% 30.13 in 10.0 mi NNW 6.9 mph - N/A   Mostly Cloudy
12:53 PM 48.9 °F - 43.0 °F 80% 30.15 in 10.0 mi North 9.2 mph - N/A   Mostly Cloudy
1:53 PM 53.1 °F - 42.1 °F 66% 30.16 in 10.0 mi NNE 6.9 mph - N/A   Mostly Cloudy
2:53 PM 52.0 °F - 39.9 °F 63% 30.15 in 10.0 mi Calm Calm - N/A   Mostly Cloudy
3:53 PM 53.1 °F - 41.0 °F 64% 30.16 in 10.0 mi NNW 5.8 mph - N/A   Mostly Cloudy
4:53 PM 52.0 °F - 42.1 °F 69% 30.18 in 10.0 mi Calm Calm - N/A   Mostly Cloudy
5:53 PM 53.1 °F - 42.1 °F 66% 30.18 in 10.0 mi West 5.8 mph - N/A   Scattered Clouds
6:53 PM 48.9 °F - 43.0 °F 80% 30.19 in 10.0 mi Calm Calm - N/A   Scattered Clouds
7:53 PM 48.0 °F - 44.1 °F 86% 30.20 in 10.0 mi Calm Calm - N/A   Scattered Clouds
8:53 PM 48.9 °F - 41.0 °F 74% 30.20 in 10.0 mi South 5.8 mph - N/A   Mostly Cloudy
9:53 PM 46.9 °F - 41.0 °F 80% 30.19 in 10.0 mi SSE 5.8 mph - N/A   Mostly Cloudy
10:53 PM 46.9 °F - 42.1 °F 83% 30.20 in 10.0 mi SE 9.2 mph - N/A   Mostly Cloudy
11:53 PM 46.9 °F - 42.1 °F 83% 30.20 in 10.0 mi SE 6.9 mph - N/A   Mostly Cloudy